map of TYS home
Great Circle Mapper logo
TYS - Airport
Location
City:  Knoxville, Tennessee, United States
Name:Mc Ghee Tyson Airport
ICAO / IATA:KTYS / TYS
FAA:TYS

Details
Type:Airport (Part 139 Class I)
Use:Public/Civil, International (customs landing rights)
Latitude:3548'39"N (35.810972)
Longitude:8359'38"W (-83.994027)
Datum:WGS 1984
Elevation:981 ft (299 m)
Variation:5.55W (WMM2015 magnetic declination)
-0.07 annual change
Runways:2
Longest:9005 × 150 ft (2745 × 45.5 m), paved

Time
Time Zone:UTC-5 (DST-4)
Local Time:

Weather
METAR:KTYS 020553Z 00000KT 10SM SCT250 22/21 A3012 RMK AO2 SLP187 T02220211 10283 20222 50003 $
TAF:KTYS 020520Z 0206/0306 01004KT P6SM SCT060 BKN250

Related Locations
Nearby:
Farthest:MGV: 11353 mi / 18271 km
Margaret River, WA, AU

Find:

   beyond  
but within

Other Information
Maps:
Delays:
NOTAMs:
Links:
Sources:

  
flag of United States
flag of Tennessee
  

Airport Diagram

Airport diagram for TYS

Airport diagram PDF

Sectional Chart

Flight Planning
at skyvector.com

Satellite Image

Google Maps Satellite view

 

Copyright © 2004-2015 Karl L. Swartz. All rights reserved.
The Great Circle Mapper name and logo are trademarks of the Great Circle Mapper.
All other trademarks mentioned herein belong to their respective owners.
Please see credits for attibutions and further copyright information.

  Follow gcmap on Facebook Follow gcmap on Twitter Follow gcmap on Google+

hCard Microformat

Geo Microformat